TimeCDT,TemperatureF,Dew PointF,Humidity,Sea Level PressureIn,VisibilityMPH,Wind Direction,Wind SpeedMPH,Gust SpeedMPH,PrecipitationIn,Events,Conditions,WindDirDegrees,DateUTC
12:53 AM,46.9,45.0,93,30.09,5.0,Calm,Calm,-,N/A,,Clear,0,2014-03-21 05:53:00
1:53 AM,45.0,43.0,93,30.09,4.0,Calm,Calm,-,N/A,,Clear,0,2014-03-21 06:53:00
2:53 AM,43.0,41.0,93,30.09,6.0,Calm,Calm,-,N/A,,Clear,0,2014-03-21 07:53:00
3:53 AM,42.1,39.9,92,30.09,5.0,Calm,Calm,-,N/A,,Clear,0,2014-03-21 08:53:00
4:53 AM,41.0,39.0,93,30.09,5.0,Calm,Calm,-,N/A,,Clear,0,2014-03-21 09:53:00
5:53 AM,41.0,39.0,93,30.10,6.0,Calm,Calm,-,N/A,,Clear,0,2014-03-21 10:53:00
6:53 AM,39.9,37.9,93,30.12,4.0,Calm,Calm,-,N/A,,Clear,0,2014-03-21 11:53:00
7:53 AM,46.9,43.0,86,30.13,9.0,Calm,Calm,-,N/A,,Clear,0,2014-03-21 12:53:00
8:53 AM,57.9,41.0,53,30.14,10.0,ENE,5.8,-,N/A,,Clear,70,2014-03-21 13:53:00
9:53 AM,66.9,39.9,37,30.15,10.0,Variable,4.6,-,N/A,,Clear,0,2014-03-21 14:53:00
10:53 AM,72.0,37.0,28,30.15,10.0,East,8.1,-,N/A,,Clear,90,2014-03-21 15:53:00
11:53 AM,75.0,37.0,25,30.13,10.0,Variable,3.5,-,N/A,,Clear,0,2014-03-21 16:53:00
12:53 PM,75.9,39.9,27,30.10,10.0,Variable,5.8,-,N/A,,Clear,0,2014-03-21 17:53:00
1:53 PM,78.1,37.9,24,30.07,10.0,Variable,3.5,-,N/A,,Clear,0,2014-03-21 18:53:00
2:53 PM,79.0,37.9,23,30.05,10.0,North,-9999.0,-,N/A,,Clear,0,2014-03-21 19:53:00
3:53 PM,79.0,41.0,26,30.04,10.0,SSW,5.8,-,N/A,,Clear,200,2014-03-21 20:53:00
4:53 PM,75.9,43.0,31,30.02,10.0,South,10.4,18.4,0.00,,Clear,170,2014-03-21 21:53:00
5:53 PM,72.0,48.9,44,30.04,10.0,South,9.2,-,N/A,,Clear,180,2014-03-21 22:53:00
6:53 PM,68.0,53.1,59,30.05,10.0,South,9.2,-,N/A,,Clear,190,2014-03-21 23:53:00
7:53 PM,64.9,54.0,68,30.05,10.0,South,3.5,-,N/A,,Clear,170,2014-03-22 00:53:00
8:53 PM,63.0,57.9,84,30.06,9.0,South,4.6,-,N/A,,Clear,170,2014-03-22 01:53:00
9:53 PM,61.0,57.9,90,30.06,6.0,Calm,Calm,-,N/A,,Partly Cloudy,0,2014-03-22 02:53:00
10:53 PM,55.9,55.0,97,30.07,3.0,Calm,Calm,-,N/A,,Clear,0,2014-03-22 03:53:00
10:59 PM,57.0,55.0,93,30.06,1.0,Calm,Calm,-,N/A,,Clear,0,2014-03-22 03:59:00
11:06 PM,55.9,55.0,97,30.06,0.8,Calm,Calm,-,N/A,,Mist,0,2014-03-22 04:06:00
11:11 PM,55.9,54.0,93,30.06,2.0,Calm,Calm,-,N/A,,Partly Cloudy,0,2014-03-22 04:11:00
11:21 PM,55.9,54.0,93,30.06,4.0,Calm,Calm,-,N/A,,Partly Cloudy,0,2014-03-22 04:21:00
11:48 PM,55.4,53.6,94,30.05,4.0,Calm,Calm,-,N/A,,Mostly Cloudy,0,2014-03-22 04:48:00
11:49 PM,55.0,54.0,96,30.05,4.0,Calm,Calm,-,N/A,,Mostly Cloudy,0,2014-03-22 04:49:00